[ hide orbit diagram ]
For accurate long-term ephemerides, please instead use our Horizons system.This orbit viewer was implemented using two-body methods, and hence should not be used for determining accurate long-term trajectories (over several years or decades) or planetary encounter circumstances.
Orbital Elements at Epoch 2459000.5 (2020-May-31.0) TDB
Reference: JPL 24 (heliocentric ecliptic J2000)
Element | Value | Uncertainty (1-sigma) | Units |
e | .1538748030524432 | 3.0965e-08 | |
a | 2.602483537109507 | 1.033e-08 | au |
q | 2.202026895389555 | 8.0595e-08 | au |
i | 2.089842976875718 | 4.0133e-06 | deg |
node | 276.8794387548047 | 0.00010426 | deg |
peri | 42.0884078253919 | 0.00010528 | deg |
M | 120.1388630788621 | 1.5275e-05 | deg |
tp | 2458488.745782826511 (2019-Jan-05.24578283) | 6.4044e-05 | TDB |
period | 1533.488110849875 4.20 | 9.1304e-06 2.5e-08 | d yr |
n | .2347589116947794 | 1.3978e-09 | deg/d |
Q | 3.002940178829458 | 1.192e-08 | au |
|
| | Orbit Determination Parameters
Additional Information
|
[ show covariance matrix ]
Physical Parameter Table
Parameter |
Symbol |
Value |
Units |
Sigma |
Reference |
Notes |
absolute magnitude |
H |
14.8 |
|
n/a |
MPO358879 |
|
diameter |
diameter |
2.682 |
km |
0.402 |
urn:nasa:pds:neowise_diameters_albedos::2.0[mainbelt] (http://adsabs.harvard.edu/abs/2011ApJ...741...68M) |
|
geometric albedo |
albedo |
0.355 |
|
0.137 |
urn:nasa:pds:neowise_diameters_albedos::2.0[mainbelt] (http://adsabs.harvard.edu/abs/2011ApJ...741...68M) |
|
|
26733 Nanavisitor | Discovered 2001 Apr. 22 by W. K. Y. Yeung at Desert Beaver Observatory. |
Nana Visitor (b. 1957) is a talented actress who started her career on the stage, but most of her work appeared on television. She is most famous for playing the role of Major Kira Nerys in the Star Trek series Deep Space Nine. |
NOTE: some special characters may not display properly (any characters within {} are an attempt to place the proper accent above a character) |
Reference: 20011130/MPCPages.arc | Last Updated: 2009-05-11 |
|
[ show close-approach data ]
Alternate Designations
2001 HC16 = 1992 ED37 = 1992 EN35 = 2000 CZ114 |
|
|